Flag Weather past 2 weeks in Corner Brook, Newfoundland and Labrador, Canada

Now
30 °F

Light snow. Mostly cloudy.


Feels Like: 21 °F
Forecast: 26 / 35 °F
Wind: 12 mph from Southwest

Location: Deer Lake

Current Time: Nov 23, 2014 at 4:09:02 AM

Latest Report: Nov 23, 2014 at 3:30 AM


Visibility: 4 mi

Pressure: 29.58 "Hg

Humidity: 86%

Dew point: 27 °F

Location of Corner BrookLocation

Historic Weather in Corner Brook — Graph

°F

Corner Brook temperature yesterday

Maximum temperature yesterday: 27 °F (at 6:30 PM)
Minimum temperature yesterday: 19 °F (at 6:30 AM)
Average temperature yesterday: 23 °F

Past Weeks' High & Low Weather Summary

 TemperatureHumidityPressure
High45 °F (Nov 8, 7:30 AM)100% (Nov 8, 2:30 AM)30.29 "Hg (Nov 8, 2:30 AM)
Low19 °F (Nov 22, 6:30 AM)41% (Nov 11, 10:30 AM)28.67 "Hg (Nov 8, 1:24 PM)
Average32 °F82%29.75 "Hg
* Reported Nov 8 2:30 AM — Nov 23 2:30 AM, Corner Brook, Weather by CustomWeather, © 2014

Note: Actual official high and low records may vary slightly from our data, if they occured in-between our weather recording intervals... More about our weather records

Advertising

Corner Brook weather history for previous 24 hours

 ConditionsComfort  
Time TempWeatherWind HumidityBarometerVisibility
2:30 AM
Nov 23
28 °FLight snow. Overcast.12 mph93%29.58 "Hg1 mi
1:30 AM28 °FLight snow. Overcast.13 mph86%29.59 "Hg1 mi
1:19 AM28 °FLight snow. Mostly cloudy.10 mph86%29.59 "Hg2 mi
12:30 AM28 °FSnow flurries. Mostly cloudy.14 mph86%29.59 "Hg3 mi
11:30 PM
Nov 22
27 °FSnow flurries. Mostly cloudy.8 mph80%29.60 "Hg7 mi
10:30 PM27 °FSnow flurries. Mostly cloudy.14 mph86%29.61 "Hg6 mi
9:30 PM25 °FLight snow. Mostly cloudy.14 mph93%29.64 "Hg1 mi
8:30 PM25 °FLight snow. Overcast.10 mph86%29.67 "Hg2 mi
7:30 PM25 °FLight snow. Mostly cloudy.10 mph86%29.67 "Hg3 mi
7:16 PM25 °FLight snow. Ice fog.14 mph93%29.68 "Hg1 mi
6:30 PM27 °FLight snow. Passing clouds.7 mph64%29.68 "Hg15 mi
5:30 PM25 °FLight snow. Passing clouds.10 mph69%29.69 "Hg8 mi
4:30 PM25 °FLight snow. Passing clouds.12 mph86%29.69 "Hg2 mi
3:30 PM25 °FLight snow. Partly sunny.9 mph74%29.68 "Hg15 mi
2:30 PM25 °FLight snow. Partly sunny.14 mph63%29.69 "Hg8 mi
1:30 PM23 °FLight snow. Partly sunny.9 mph74%29.71 "Hg6 mi
12:30 PM21 °FLight snow. Partly sunny.18 mph74%29.70 "Hg3 mi
11:30 AM21 °FLight snow. Overcast.13 mph74%29.71 "Hg3 mi
10:30 AM23 °FLight snow. Partly sunny.14 mph68%29.70 "Hg3 mi
9:30 AM21 °FLight snow. Partly sunny.14 mph80%29.69 "Hg2 mi
8:30 AM21 °FSnow flurries. More clouds than sun.13 mph80%29.67 "Hg2 mi
7:30 AM19 °FSnow flurries. Partly sunny.9 mph86%29.65 "Hg4 mi
6:30 AM19 °FSnow flurries. Mostly cloudy.12 mph79%29.64 "Hg8 mi
5:30 AM21 °FSnow flurries. Mostly cloudy.9 mph80%29.62 "Hg4 mi
4:30 AM21 °FSnow flurries. Mostly cloudy.7 mph80%29.60 "Hg7 mi
Weather by CustomWeather, © 2014

See weather overviewHow to use our weather pages